Regional Weather Roundup
Issued by NWS

Home | Current Version | Previous Version | Graphics & Text | Print | Product List | Glossary On
Versions: 1 2 3 4 5 6 7 8 9 10 11 12 13 14 15 16 17 18 19 20 21 22 23 24 25 26 27 28 29 30 31 32 33 34 35 36 37 38 39 40 41 42 43 44 45 46 47 48 49 50
449
ASUS45 KPSR 040610
RWRAZ

ARIZONA HOURLY REGIONAL WEATHER ROUNDUP
NATIONAL WEATHER SERVICE PHOENIX AZ
1100 PM MST SAT DEC 03 2016

NOTE: FAIR INDICATES FEW OR NO CLOUDS BELOW 12,000 FEET WITH NO
SIGNIFICANT WEATHER AND/OR OBSTRUCTIONS TO VISIBILITY.

AZZ001>003-036-040700-
NORTHWEST ARIZONA

CITY           SKY/WX    TMP DP  RH WIND       PRES   REMARKS
BULLHEAD CITY  CLEAR     57  14  18 NE14      30.12R
KINGMAN        CLEAR     37   9  31 E9        30.14S WCI  30
6HR MIN TEMP:  37; 6HR MAX TEMP:  49;

$$

AZZ004>008-015-016-018-040700-
NORTH CENTRAL ARIZONA

CITY           SKY/WX    TMP DP  RH WIND       PRES   REMARKS
GRAND CANYON   PTCLDY    14   8  77 NE3       30.19R
6HR MIN TEMP:  13; 6HR MAX TEMP:  35;

PRESCOTT       CLEAR     28  16  60 S5        30.11R WCI  23
6HR MIN TEMP:  28; 6HR MAX TEMP:  48;

FLAGSTAFF      CLEAR     31   5  33 E24G32    30.09S WCI  17
6HR MIN TEMP:  31; 6HR MAX TEMP:  36;

PAYSON         CLEAR     43   9  24 NE13G23   30.09S
PAGE           CLEAR     33  10  38 CALM      30.19R
6HR MIN TEMP:  32; 6HR MAX TEMP:  42;

$$

AZZ009>014-017-040700-
NORTHEAST ARIZONA

CITY           SKY/WX    TMP DP  RH WIND       PRES   REMARKS
WINSLOW        CLEAR     28   9  44 CALM      30.16S
6HR MIN TEMP:  26; 6HR MAX TEMP:  45;

SAINT JOHNS    CLEAR     24  17  74 S3        30.11S
6HR MIN TEMP:  24; 6HR MAX TEMP:  43;

WINDOW ROCK    CLEAR     23  13  65 CALM      30.12S
6HR MIN TEMP:  20; 6HR MAX TEMP:  39;

SHOW LOW       CLEAR     23  14  68 NE3       30.13S
$$

AZZ023-040700-
GREATER PHOENIX AREA

CITY           SKY/WX    TMP DP  RH WIND       PRES   REMARKS
PHOENIX        CLEAR     54  27  35 E5        29.99R
6HR MIN TEMP:  53; 6HR MAX TEMP:  68;

BUCKEYE        CLEAR     54  19  26 N12       30.02R
LUKE AFB       CLEAR     51  26  38 NW9       29.99R
6HR MIN TEMP:  50; 6HR MAX TEMP:  66;

DEER VALLEY    CLEAR     55  19  24 NE6       30.00R
6HR MIN TEMP:  53; 6HR MAX TEMP:  69;

SCOTTSDALE     CLEAR     57  20  23 NW3       30.01S
6HR MIN TEMP:  52; 6HR MAX TEMP:  68;

MESA-GATEWAY   CLEAR     48  28  46 CALM      30.01R
$$

AZZ027-028-040700-
SOUTHWEST MARICOPA COUNTY AND PINAL COUNTY

CITY           SKY/WX    TMP DP  RH WIND       PRES   REMARKS
CASA GRANDE    NOT AVBL
$$

AZZ503-504-507>509-040700-
SOUTHEAST ARIZONA

CITY           SKY/WX    TMP DP  RH WIND       PRES   REMARKS
TUCSON         CLEAR     49  24  37 S3        30.02R
6HR MIN TEMP:  48; 6HR MAX TEMP:  62;

DAVIS-MONTHAN  CLEAR     44  25  48 S7        30.01R
6HR MIN TEMP:  44; 6HR MAX TEMP:  60;

NOGALES        CLEAR     40  30  67 S3        30.00S
6HR MIN TEMP:  40; 6HR MAX TEMP:  56;

SIERRA VISTA   CLEAR     41  35  81 SW3       30.03S
6HR MIN TEMP:  39; 6HR MAX TEMP:  53;

DOUGLAS        CLOUDY    42  39  89 NE5       30.03R
6HR MIN TEMP:  38; 6HR MAX TEMP:  49;

SAFFORD        CLEAR     40  36  86 SE5       30.01F
6HR MIN TEMP:  40; 6HR MAX TEMP:  57;

$$

AZZ020-021-025-026-031-040700-
SOUTHWEST ARIZONA

CITY           SKY/WX    TMP DP  RH WIND       PRES   REMARKS
YUMA           CLEAR     55   7  14 NW5       30.05R
6HR MIN TEMP:  55; 6HR MAX TEMP:  66;

$$

CAZ031-033-041-043-047-048-061-040700-
SOUTHERN CALIFORNIA

CITY           SKY/WX    TMP DP  RH WIND       PRES   REMARKS
DOWNTOWN L.A.  CLEAR     52  30  43 CALM      30.05S
6HR MIN TEMP:  50; 6HR MAX TEMP:  65;

L.A. AIRPORT   CLEAR     54  38  54 NE5       30.06S
6HR MIN TEMP:  53; 6HR MAX TEMP:  63;

SAN DIEGO      CLEAR     54  33  45 N3        30.07F
6HR MIN TEMP:  54; 6HR MAX TEMP:  63;

BURBANK        CLEAR     50  26  39 CALM      30.06S
6HR MIN TEMP:  50; 6HR MAX TEMP:  65;

ONTARIO        CLEAR     60  10  14 SW9G16    30.06R
6HR MIN TEMP:  53; 6HR MAX TEMP:  66;

RIVERSIDE      CLEAR     54  23  30 NE5       30.06S
6HR MIN TEMP:  54; 6HR MAX TEMP:  71;

PALM SPRINGS   CLEAR     61  20  20 CALM      30.08R
6HR MIN TEMP:  59; 6HR MAX TEMP:  71;

EL CENTRO NAS  CLEAR     47   4  17 W12       30.08R
6HR MIN TEMP:  46; 6HR MAX TEMP:  66;

IMPERIAL       CLEAR     51  12  21 SW5       30.06R
6HR MIN TEMP:  48; 6HR MAX TEMP:  67;

BLYTHE         CLEAR     59   7  12 N14       30.07R
6HR MIN TEMP:  59; 6HR MAX TEMP:  66;

NEEDLES        CLEAR     56   9  15 W5        30.11R
6HR MIN TEMP:  53; 6HR MAX TEMP:  63;

$$

NVZ020-UTZ003-040700-
SOUTHERN NEVADA-UTAH

CITY           SKY/WX    TMP DP  RH WIND       PRES   REMARKS
LAS VEGAS      CLEAR     48  11  22 W6        30.18R
6HR MIN TEMP:  47; 6HR MAX TEMP:  57;

SALT LAKE CITY PTCLDY    31  20  63 SE12      30.27R WCI  22
6HR MIN TEMP:  31; 6HR MAX TEMP:  34;

$$

NMZ009-TXZ055-040700-
NEW MEXICO-WEST TEXAS

CITY           SKY/WX    TMP DP  RH WIND       PRES   REMARKS
ALBUQUERQUE    CLEAR     35  20  54 N8        30.11R WCI  29
6HR MIN TEMP:  35; 6HR MAX TEMP:  44;

EL PASO        MOCLDY    45  38  76 CALM      29.99S
6HR MIN TEMP:  45; 6HR MAX TEMP:  47;

$$


........................KEY........................
SKY/WX - SKY CONDITION/WEATHER
TMP    - TEMPERATURE IN FAHRENHEIT
DP     - DEW POINT IN FAHRENHEIT
RH     - RELATIVE HUMIDITY IN PERCENT
WIND   - DIRECTION AND SPEED IN MILES PER HOUR (MPH)
VRB    - VARIABLE WIND DIRECTION
PRES   - MEAN SEA LEVEL PRESSURE IN INCHES OF MERCURY
         F - FALLING PRESSURE   R - RISING PRESSURE
         S - STEADY PRESSURE
VSB    - VISIBILITY IN MILES
HX     - HEAT INDEX IN FAHRENHEIT
WCI    - WIND CHILL INDEX IN FAHRENHEIT
TC     - TEMPERATURE IN CELSIUS WHICH IS ALSO KNOWN AS
         TEMPERATURE IN CENTIGRADE
AFB    - AIR FORCE BASE
         LUKE AFB IS LUKE AIR FORCE BASE
         DAVIS-MONTHAN IS DAVIS-MONTHAN AIR FORCE BASE
NAS    - NAVAL AIR STATION
         EL CENTRO NAS IS EL CENTRO NAVAL AIR STATION
N/A    - NOT AVAILABLE





USA.gov is the U.S. government's official web portal to all federal, state and local government web resources and services.